IN3BXS Weather Reports


time (UTC)temp
C
wind
direction
speed
KPH
gust
KPH
rain 1hr
cm
rain 24hr
cm
rain mn
cm
humidity
%
barometer
mb
20260507163025 12 227 0.0 12.9 0.00 0.10 0.00 26 1008.6
20260507153025 13 205 0.0 14.5 0.00 0.10 0.00 26 1007.3
20260507150026 13 249 0.0 12.9 0.00 0.10 0.00 26 1007.1
20260507143025 13 227 0.0 19.3 0.00 0.10 0.00 25 1007.0
20260507140025 14 259 0.0 16.1 0.00 0.10 0.00 25 1008.0
20260507133025 13 331 0.0 14.5 0.00 0.10 0.00 26 1008.2
20260507130026 12 268 0.0 17.7 0.00 0.30 0.00 26 1008.8
20260507123026 11 233 0.0 12.9 0.00 0.74 0.00 29 1009.3
20260507113028 12 210 0.0 8.0 0.00 0.74 0.00 28 1008.8
20260507110025 13 2 0.0 9.7 0.00 0.74 0.00 27 1008.3
20260507100025 15 272 0.0 17.7 0.00 0.84 0.00 25 1007.7
20260507093025 13 261 0.0 14.5 0.00 0.84 0.00 26 1008.2
20260507090025 12 231 0.0 9.7 0.00 0.84 0.00 27 1008.7
20260507083025 13 256 0.0 12.9 0.00 0.84 0.00 29 1008.5
20260507080025 12 264 0.0 9.7 0.00 0.84 0.00 32 1008.9
20260507073025 11 246 0.0 9.7 0.00 0.84 0.00 36 1008.2
20260507070025 10 185 0.0 6.4 0.00 0.84 0.00 37 1008.6
20260507063026 8 206 0.0 4.8 0.00 0.84 0.00 39 1009.2
20260507060025 8 131 0.0 4.8 0.00 0.84 0.00 48 1009.6
20260507053025 7 185 0.0 0.0 0.00 0.84 0.00 53 1009.9
20260507050025 6 265 0.0 3.2 0.00 0.84 0.00 55 1010.3
20260507043025 5 357 0.0 4.8 0.00 0.94 0.00 53 1009.5
20260507040025 5 357 0.0 4.8 0.00 0.94 0.00 52 1009.8
20260507033025 5 53 0.0 0.0 0.00 0.94 0.00 50 1009.9
20260507030025 5 53 0.0 0.0 0.00 0.94 0.00 51 1009.7
20260507023025 5 53 0.0 6.4 0.00 0.94 0.00 52 1009.5
20260507020025 6 320 0.0 3.2 0.00 0.94 0.00 51 1009.3
20260507013025 6 315 0.0 4.8 0.00 0.94 0.00 52 1009.3
20260507010025 6 259 0.0 0.0 0.00 0.94 0.00 51 1009.4
20260507003026 6 44 0.0 0.0 0.00 0.94 0.00 50 1009.4
20260507000025 6 44 0.0 0.0 0.00 0.94 0.00 48 1009.4
20260506233025 6 12 0.0 4.8 0.00 0.94 0.00 48 1009.2
20260506230026 6 6 0.0 0.0 0.00 0.94 0.00 45 1009.1
20260506223026 7 2 0.0 8.0 0.00 0.94 0.00 45 1008.8
20260506220026 7 41 0.0 8.0 0.00 0.94 0.94 47 1008.6
20260506213026 8 225 0.0 4.8 0.00 0.94 0.94 49 1009.5
20260506210026 7 314 0.0 8.0 0.00 0.94 0.94 49 1008.5
20260506203026 7 15 0.0 4.8 0.00 0.94 0.94 44 1008.5
20260506200026 8 314 0.0 6.4 0.10 0.94 0.94 44 1008.3
20260506193026 8 44 0.0 8.0 0.10 0.94 0.94 45 1007.1
20260506190026 8 323 0.0 0.0 0.00 0.84 0.84 43 1007.1
20260506183026 8 325 0.0 4.8 0.00 0.84 0.84 39 1007.1
20260506180026 10 248 0.0 6.4 0.00 0.84 0.84 37 1006.5
20260506173026 10 251 0.0 12.9 0.00 0.84 0.84 36 1005.0
20260506170026 11 273 0.0 9.7 0.00 0.84 0.84 37 1004.9